Carmi, IL

2:30 PM CST on February 10, 2016 (GMT -0600)
Carmi Municipal

Weather History for KCUL - November, 2013

Change the Weather History Date:

Wednesday, November 27, 2013

  Actual Average (KEVV) Record (KEVV)
Temperature  
Mean Temperature 24 °F 41 °F  
Max Temperature 30 °F 51 °F 75 °F (1990)
Min Temperature 19 °F 32 °F 13 °F (1930)
Degree Days  
Heating Degree Days 40 24  
Month to date heating degree days 486  
Since 1 July heating degree days 789  
Cooling Degree Days 0 0  
Month to date cooling degree days 0  
Year to date cooling degree days 1395  
Moisture  
Dew Point 13 °F    
Average Humidity 61    
Maximum Humidity 87    
Minimum Humidity 40    
Precipitation  
Precipitation 0.00 in 0.15 in 1.65 in (1983)
Month to date precipitation 3.88  
Year to date precipitation 41.10  
Snow  
Snow 0.00 in 0.00 in 3.80 in (1977)
Month to date snowfall 0.1  
Since 1 July snowfall 0.3  
Since 1 September snowfall 0.3  
Snow Depth -    
Sea Level Pressure  
Sea Level Pressure 30.27 in    
Wind  
Wind Speed 13 mph (NW)    
Max Wind Speed 20 mph    
Max Gust Speed 25 mph    
Visibility 10 miles    
Events      
T = Trace of Precipitation, MM = Missing Value Source: NWS Daily Summary

Daily Weather History Graph

Daily Weather History Graph

Search for Another Location

Airport or City:

Trip Planner

Search our weather history database for the weather conditions in past years. The results will help you decide how hot, cold, wet, or windy it might be!

Date:

Astronomy

Nov. 27, 2013 Rise Set
Actual Time 6:46 AM CST 4:33 PM CST
Civil Twilight 6:17 AM CST 5:02 PM CST
Nautical Twilight 5:44 AM CST 5:35 PM CST
Astronomical Twilight 5:13 AM CST 6:06 PM CST
Moon 12:53 AM CST (11/27) 1:06 PM CST (11/27)
Length of Visible Light 10h 45m
Length of Day
9h 47m
Waning Crescent, 31% of the Moon is Illuminated
Nov 27
Waning Crescent
Dec 2
New
Dec 9
First Quarter
Dec 17
Full
Dec 25
Last Quarter

Hourly Weather History & Observations

Time (CST) Temp. Windchill Dew Point Humidity Pressure Visibility Wind Dir Wind Speed Gust Speed Precip Events Conditions
12:15 AM 27.3 °F 14.4 °F 14.7 °F 59% 30.14 in 10.0 mi NW 18.4 mph 24.2 mph N/A   Overcast
12:35 AM 26.6 °F 13.8 °F 14.7 °F 61% 30.14 in 10.0 mi NW 17.3 mph 23.0 mph N/A   Scattered Clouds
12:55 AM 26.2 °F 13.4 °F 14.9 °F 62% 30.14 in 10.0 mi NW 17.3 mph 21.9 mph N/A   Clear
1:15 AM 25.7 °F 14.0 °F 14.7 °F 63% 30.14 in 10.0 mi NW 13.8 mph - N/A   Clear
1:35 AM 25.5 °F 13.3 °F 14.5 °F 63% 30.15 in 10.0 mi NW 15.0 mph 20.7 mph N/A   Clear
1:55 AM 25.2 °F 13.9 °F 14.7 °F 65% 30.15 in 10.0 mi NW 12.7 mph - N/A   Clear
2:15 AM 25.0 °F 11.7 °F 14.7 °F 65% 30.15 in 10.0 mi NW 17.3 mph - N/A   Clear
2:35 AM 24.8 °F 13.4 °F 14.5 °F 65% 30.16 in 10.0 mi NW 12.7 mph 20.7 mph N/A   Clear
2:55 AM 24.4 °F 12.4 °F 14.4 °F 66% 30.16 in 10.0 mi NW 13.8 mph 19.6 mph N/A   Clear
3:15 AM 24.1 °F 11.5 °F 14.0 °F 65% 30.16 in 10.0 mi NW 15.0 mph 19.6 mph N/A   Clear
3:35 AM 23.9 °F 10.3 °F 13.8 °F 65% 30.17 in 10.0 mi NW 17.3 mph 20.7 mph N/A   Clear
3:55 AM 23.5 °F 10.3 °F 13.8 °F 66% 30.18 in 10.0 mi NW 16.1 mph - N/A   Clear
4:15 AM 23.2 °F 10.8 °F 13.6 °F 67% 30.18 in 10.0 mi NW 13.8 mph 19.6 mph N/A   Clear
4:35 AM 23.0 °F 9.6 °F 13.1 °F 66% 30.19 in 10.0 mi NW 16.1 mph 21.9 mph N/A   Clear
4:55 AM 22.6 °F 9.6 °F 13.3 °F 67% 30.19 in 10.0 mi NW 15.0 mph 20.7 mph N/A   Clear
5:15 AM 22.3 °F 8.7 °F 12.6 °F 66% 30.20 in 10.0 mi NW 16.1 mph 21.9 mph N/A   Clear
5:35 AM 21.9 °F 8.2 °F 12.2 °F 66% 30.21 in 10.0 mi NW 16.1 mph - N/A   Clear
5:55 AM 21.6 °F 9.9 °F 12.4 °F 68% 30.21 in 10.0 mi NW 11.5 mph 20.7 mph N/A   Clear
6:15 AM 21.2 °F 7.8 °F 12.2 °F 68% 30.22 in 10.0 mi NW 15.0 mph - N/A   Clear
6:35 AM 21.0 °F 9.3 °F 11.5 °F 67% 30.23 in 10.0 mi NW 11.5 mph - N/A   Clear
6:55 AM 20.8 °F 9.0 °F 11.1 °F 66% 30.24 in 10.0 mi NW 11.5 mph 17.3 mph N/A   Clear
7:15 AM 20.8 °F 9.7 °F 10.9 °F 66% 30.24 in 10.0 mi NW 10.4 mph - N/A   Clear
7:35 AM 21.2 °F 8.3 °F 11.1 °F 65% 30.25 in 10.0 mi NW 13.8 mph 17.3 mph N/A   Clear
7:55 AM 21.7 °F 9.0 °F 10.9 °F 63% 30.26 in 10.0 mi NW 13.8 mph - N/A   Clear
8:15 AM 22.1 °F 9.5 °F 10.4 °F 61% 30.27 in 10.0 mi NW 13.8 mph 21.9 mph N/A   Clear
8:35 AM 22.8 °F 8.1 °F 10.0 °F 58% 30.26 in 10.0 mi NW 19.6 mph 24.2 mph N/A   Clear
8:55 AM 23.4 °F 9.2 °F 10.2 °F 57% 30.27 in 10.0 mi NW 18.4 mph - N/A   Clear
9:15 AM 23.7 °F 10.1 °F 9.7 °F 55% 30.28 in 10.0 mi NW 17.3 mph - N/A   Clear
9:35 AM 24.4 °F 11.9 °F 9.3 °F 53% 30.28 in 10.0 mi NW 15.0 mph 24.2 mph N/A   Clear
9:55 AM 25.0 °F 13.1 °F 9.3 °F 52% 30.28 in 10.0 mi NW 13.8 mph - N/A   Clear
10:15 AM 25.5 °F 13.8 °F 9.5 °F 51% 30.29 in 10.0 mi NW 13.8 mph 24.2 mph N/A   Clear
10:35 AM 26.4 °F 12.8 °F 9.5 °F 49% 30.29 in 10.0 mi NW 19.6 mph 25.3 mph N/A   Clear
10:55 AM 26.6 °F 15.2 °F 9.3 °F 48% 30.28 in 10.0 mi NNW 13.8 mph 20.7 mph N/A   Clear
11:15 AM 27.3 °F 15.2 °F 9.7 °F 48% 30.28 in 10.0 mi NW 16.1 mph - N/A   Clear
11:35 AM 27.5 °F 15.4 °F 9.3 °F 46% 30.27 in 10.0 mi WNW 16.1 mph 25.3 mph N/A   Clear
11:55 AM 28.6 °F 16.8 °F 9.3 °F 44% 30.27 in 10.0 mi NW 16.1 mph 23.0 mph N/A   Clear
12:15 PM 28.6 °F 16.8 °F 8.8 °F 43% 30.27 in 10.0 mi WNW 16.1 mph 24.2 mph N/A   Clear
12:35 PM 28.4 °F 17.0 °F 9.0 °F 44% 30.27 in 10.0 mi NW 15.0 mph - N/A   Clear
12:55 PM 29.5 °F 18.8 °F 9.5 °F 43% 30.27 in 10.0 mi WNW 13.8 mph 19.6 mph N/A   Clear
1:15 PM 29.8 °F 19.8 °F 9.0 °F 42% 30.26 in 10.0 mi NNW 12.7 mph 20.7 mph N/A   Clear
1:35 PM 30.4 °F 21.0 °F 9.3 °F 41% 30.26 in 10.0 mi NW 11.5 mph 20.7 mph N/A   Clear
1:55 PM 30.2 °F 19.3 °F 8.8 °F 41% 30.27 in 10.0 mi WNW 15.0 mph 20.7 mph N/A   Clear
2:15 PM 30.7 °F 20.9 °F 9.7 °F 41% 30.27 in 10.0 mi NW 12.7 mph 18.4 mph N/A   Clear
2:35 PM 30.4 °F 20.5 °F 8.8 °F 40% 30.29 in 10.0 mi WNW 12.7 mph 18.4 mph N/A   Clear
2:55 PM 30.2 °F 18.9 °F 9.7 °F 42% 30.29 in 10.0 mi WNW 16.1 mph 21.9 mph N/A   Clear
3:15 PM 30.2 °F 19.3 °F 10.2 °F 43% 30.30 in 10.0 mi West 15.0 mph - N/A   Clear
3:20 PM 30.2 °F 18.9 °F 10.4 °F 44% 30.30 in 10.0 mi WNW 16.1 mph - N/A   Clear
3:35 PM 30.0 °F 17.9 °F 10.6 °F 44% 30.30 in 10.0 mi WNW 18.4 mph 23.0 mph N/A   Clear
3:55 PM 29.5 °F 19.3 °F 10.2 °F 45% 30.30 in 10.0 mi WNW 12.7 mph 18.4 mph N/A   Clear
4:15 PM 29.1 °F 20.0 °F 10.9 °F 47% 30.30 in 10.0 mi WNW 10.4 mph - N/A   Clear
4:35 PM 28.2 °F 20.2 °F 11.8 °F 50% 30.31 in 10.0 mi WNW 8.1 mph - N/A   Clear
4:55 PM 27.3 °F 19.1 °F 12.4 °F 53% 30.32 in 10.0 mi NW 8.1 mph - N/A   Clear
5:15 PM 26.2 °F 19.6 °F 13.1 °F 58% 30.32 in 10.0 mi NW 5.8 mph - N/A   Clear
5:35 PM 25.2 °F 20.9 °F 13.1 °F 60% 30.33 in 10.0 mi WNW 3.5 mph - N/A   Clear
5:55 PM 24.6 °F 18.8 °F 14.0 °F 64% 30.33 in 10.0 mi West 4.6 mph - N/A   Clear
6:15 PM 24.6 °F 20.3 °F 14.7 °F 66% 30.34 in 10.0 mi West 3.5 mph - N/A   Clear
6:35 PM 24.4 °F 17.5 °F 14.9 °F 67% 30.34 in 10.0 mi West 5.8 mph - N/A   Clear
6:55 PM 23.2 °F 18.7 °F 15.3 °F 72% 30.34 in 10.0 mi West 3.5 mph - N/A   Clear
7:15 PM 23.4 °F - 15.3 °F 71% 30.35 in 10.0 mi Calm Calm - N/A   Clear
7:35 PM 22.8 °F - 16.2 °F 76% 30.35 in 10.0 mi Calm Calm - N/A   Clear
7:55 PM 23.9 °F - 15.4 °F 70% 30.34 in 10.0 mi Calm Calm - N/A   Clear
8:15 PM 23.2 °F - 14.5 °F 70% 30.34 in 10.0 mi Calm Calm - N/A   Clear
8:35 PM 22.8 °F - 16.9 °F 78% 30.34 in 10.0 mi Calm Calm - N/A   Clear
8:55 PM 22.8 °F - 19.4 °F 87% 30.35 in 10.0 mi Calm Calm - N/A   Clear
9:15 PM 21.0 °F - 16.3 °F 82% 30.36 in 10.0 mi Calm Calm - N/A   Clear
9:35 PM 21.7 °F - 16.7 °F 81% 30.35 in 10.0 mi Calm Calm - N/A   Clear
9:55 PM 21.4 °F - 17.6 °F 85% 30.35 in 10.0 mi Calm Calm - N/A   Clear
10:15 PM 21.6 °F - 18.0 °F 86% 30.35 in 10.0 mi Calm Calm - N/A   Clear
10:35 PM 20.5 °F 15.6 °F 16.3 °F 84% 30.36 in 10.0 mi WSW 3.5 mph - N/A   Clear
10:55 PM 19.8 °F - 16.3 °F 87% 30.37 in 10.0 mi Calm Calm - N/A   Clear
11:15 PM 20.8 °F - 16.7 °F 84% 30.37 in 10.0 mi Calm Calm - N/A   Clear
11:35 PM 21.0 °F - 17.2 °F 85% 30.37 in 10.0 mi Calm Calm - N/A   Clear
11:55 PM 20.3 °F - 15.8 °F 83% 30.37 in 10.0 mi Calm Calm - N/A   Clear